This is the latest recevied weather packets stored in our database for station/object BAGASKAR. If no packets are shown the sender has not sent any weather packets the latest 10 day(s).
| Time | Temp. | Humidity | Pressure | Rain* | Wind** | Luminosity | Snow |
|---|---|---|---|---|---|---|---|
| 1777602418 | 6.67° C | 100% | 1021.7 hPa | - | - | - | - |
| 1777601217 | 7.22° C | 100% | 1021.7 hPa | - | - | - | - |
| 1777600017 | 7.22° C | 99% | 1021.6 hPa | - | - | - | - |
| 1777598817 | 7.22° C | 99% | 1021.7 hPa | - | - | - | - |
| 1777597617 | 7.22° C | 98% | 1021.6 hPa | - | - | - | - |
| 1777596417 | 7.78° C | 96% | 1021.5 hPa | - | - | - | - |
| 1777595217 | 7.78° C | 94% | 1021.5 hPa | - | - | - | - |
| 1777594016 | 8.33° C | 93% | 1021.4 hPa | - | - | - | - |
| 1777592817 | 8.33° C | 90% | 1021.6 hPa | - | - | - | - |
| 1777591617 | 8.33° C | 89% | 1021.5 hPa | - | - | - | - |
| 1777590416 | 8.89° C | 85% | 1021.6 hPa | - | - | - | - |
| 1777589216 | 9.44° C | 83% | 1021.6 hPa | - | - | - | - |
| 1777588016 | 9.44° C | 83% | 1021.4 hPa | - | - | - | - |
| 1777586816 | 9.44° C | 83% | 1021.3 hPa | - | - | - | - |
| 1777585616 | 9.44° C | 81% | 1021.3 hPa | - | - | - | - |
| 1777584417 | 10° C | 79% | 1021.3 hPa | - | - | - | - |
| 1777583216 | 10° C | 78% | 1021.3 hPa | - | - | - | - |
| 1777582016 | 10.56° C | 76% | 1021.2 hPa | - | - | - | - |
| 1777580816 | 10° C | 78% | 1021.3 hPa | - | - | - | - |
| 1777579616 | 10.56° C | 77% | 1021.2 hPa | - | - | - | - |
| 1777578416 | 11.11° C | 73% | 1021.1 hPa | - | - | - | - |
| 1777577216 | 10.56° C | 75% | 1021 hPa | - | - | - | - |
| 1777576015 | 10.56° C | 82% | 1020.9 hPa | - | - | - | - |
| 1777574816 | 10.56° C | 78% | 1020.7 hPa | - | - | - | - |
| 1777573616 | 11.11° C | 77% | 1020.7 hPa | - | - | - | - |
* Rain since midnight (hover to see other rain measurements)
** Current wind speed in m/s (hover to see current wind gust speed)